Date String (YYYY-MM-DD hh:mm:ss) UTC,Instrument flags,absolute air pressure of the measurement (hPa),sample flow rate (lpm),inlet stack bypass flow (lpm),air temperature of the measurement (°C),ambient temperature measured by the external sensor (°C),aerosol sample conditioner tube jacket temperature (°C),OPC LED temperature (°C),internal box temperature (°C),relative humidity of the measurement (%),span deviation,mass concentration of particles derived from Lorenz-Mie calculation of OPC scattering (μg/m³),mass concentration of particles derived from Lorenz-Mie calculation of OPC scattering (μg/m³),mass concentration of particles derived from Lorenz-Mie calculation of OPC scattering (μg/m³)
DateTimeUTC,F1_M11,P_M11,Q1_M11,Q2_M11,T1_M11,T2_M11,T3_M11,T4_M11,T5_M11,U1_M11,ZSPAN_M11,X0_M11,X2_M11,X1_M11
2023-08-06 15:00:00,SystemResetWarning,0838.6,4.99,000.00,029.7,028.3,000.0,038.3,031.2,30.8,-003.6,0008.34,0004.11,0003.75
2023-08-06 15:01:00,SystemResetWarning,0838.6,5.01,000.00,029.7,028.3,000.0,038.3,031.2,31.0,-003.4,0008.10,0004.09,0003.75
2023-08-06 15:02:00,SystemResetWarning,0838.6,5.01,000.00,029.7,028.3,000.0,038.3,031.3,31.1,-003.1,0008.06,0004.08,0003.75
2023-08-06 15:03:00,SystemResetWarning,0838.5,5.00,000.00,029.7,028.4,000.0,038.3,031.3,30.9,-003.0,0008.14,0004.11,0003.74
2023-08-06 15:04:00,SystemResetWarning,0838.6,5.00,000.00,029.7,028.4,000.0,038.3,031.3,30.7,-002.6,0008.25,0004.12,0003.74
2023-08-06 15:05:00,SystemResetWarning,0838.6,5.00,000.00,029.7,028.4,000.0,038.3,031.3,30.7,-002.6,0008.31,0004.14,0003.73
2023-08-06 15:06:00,SystemResetWarning,0838.6,5.00,000.00,029.7,028.5,000.0,038.3,031.3,30.7,-002.7,0008.14,0004.14,0003.72
2023-08-06 15:07:00,SystemResetWarning,0838.5,5.00,000.00,029.8,028.5,000.0,038.3,031.3,30.8,-002.8,0007.30,0004.10,0003.70
2023-08-06 15:08:00,SystemResetWarning,0838.5,5.00,000.00,029.8,028.5,000.0,038.3,031.3,31.0,-003.1,0006.78,0004.07,0003.68
2023-08-06 15:09:00,SystemResetWarning,0838.5,5.00,000.00,029.8,028.6,000.0,038.4,031.4,30.9,-003.1,0007.23,0004.07,0003.67
2023-08-06 15:10:00,SystemResetWarning,0838.4,5.00,000.00,029.8,028.6,000.0,038.4,031.4,30.7,-003.0,0006.94,0004.04,0003.66
2023-08-06 15:11:00,SystemResetWarning,0838.5,5.00,000.00,029.8,028.6,000.0,038.4,031.4,30.6,-002.9,0006.77,0004.00,0003.66
2023-08-06 15:12:00,SystemResetWarning,0838.6,5.00,000.00,029.8,028.6,000.0,038.4,031.4,30.4,-003.0,0006.68,0004.00,0003.66
2023-08-06 15:13:00,SystemResetWarning,0838.6,5.00,000.00,029.9,028.7,000.0,038.4,031.5,30.3,-003.4,0006.56,0004.02,0003.67
2023-08-06 15:14:00,SystemResetWarning,0838.6,5.00,000.00,029.9,028.7,000.0,038.4,031.5,30.2,-003.5,0006.44,0004.00,0003.68
2023-08-06 15:15:00,SystemResetWarning,0838.6,5.00,000.00,029.9,028.7,000.0,038.4,031.5,30.3,-003.5,0006.35,0004.01,0003.67
2023-08-06 15:16:00,SystemResetWarning,0838.6,5.00,000.00,029.9,028.7,000.0,038.5,031.5,30.2,-003.6,0006.22,0004.00,0003.69
2023-08-06 15:17:00,SystemResetWarning,0838.6,5.00,000.00,029.9,028.7,000.0,038.5,031.5,30.3,-003.2,0006.19,0004.00,0003.70
2023-08-06 15:18:00,SystemResetWarning,0838.6,5.00,000.00,029.9,028.7,000.0,038.5,031.5,30.2,-003.1,0006.32,0004.02,0003.72
2023-08-06 15:19:00,SystemResetWarning,0838.6,4.99,000.00,029.9,028.7,000.0,038.5,031.5,30.1,-002.8,0006.38,0004.04,0003.74
2023-08-06 15:20:00,SystemResetWarning,0838.6,5.00,000.00,030.0,028.8,000.0,038.5,031.6,30.1,-002.5,0006.74,0004.10,0003.77
2023-08-06 15:21:00,SystemResetWarning,0838.6,5.00,000.00,030.0,028.8,000.0,038.5,031.6,30.3,-002.0,0007.11,0004.11,0003.78
2023-08-06 15:22:00,SystemResetWarning,0838.6,5.00,000.00,030.0,028.8,000.0,038.6,031.6,30.4,-001.7,0007.98,0004.13,0003.78
2023-08-06 15:23:00,SystemResetWarning,0838.6,5.00,000.00,030.0,028.8,000.0,038.6,031.6,30.0,-001.7,0008.08,0004.15,0003.78
2023-08-06 15:24:00,SystemResetWarning,0838.6,4.99,000.00,030.0,027.7,000.0,038.5,031.5,30.0,-001.9,0008.08,0004.15,0003.77
2023-08-06 15:25:00,SystemResetWarning,0838.6,5.00,000.00,029.9,025.9,000.0,038.3,031.2,29.9,-001.7,0008.11,0004.14,0003.76
2023-08-06 15:26:00,SystemResetWarning,0838.6,5.01,000.00,029.8,025.3,000.0,038.2,030.9,30.1,-002.1,0008.24,0004.13,0003.75
2023-08-06 15:27:00,SystemResetWarning,0838.6,5.00,000.00,029.7,025.5,000.0,038.3,030.7,30.7,-002.4,0008.31,0004.11,0003.74
2023-08-06 15:28:00,SystemResetWarning,0838.6,5.01,000.00,029.6,025.9,000.0,038.3,030.8,30.7,-002.6,0008.32,0004.11,0003.73
2023-08-06 15:29:00,SystemResetWarning,0838.6,5.00,000.00,029.6,026.3,000.0,038.3,030.9,30.8,-002.4,0008.28,0004.10,0003.72
2023-08-06 15:30:00,SystemResetWarning,0838.6,5.00,000.00,029.5,026.7,000.0,038.3,030.9,31.1,-002.6,0008.26,0004.09,0003.70
2023-08-06 15:31:00,SystemResetWarning,0838.6,5.01,000.00,029.5,027.0,000.0,038.3,031.0,30.8,-003.1,0007.94,0004.01,0003.66
2023-08-06 15:32:00,SystemResetWarning,0838.6,5.00,000.00,029.5,027.3,000.0,038.2,031.0,30.6,-003.7,0007.56,0004.00,0003.64
2023-08-06 15:33:00,SystemResetWarning,0838.6,5.00,000.00,029.6,027.5,000.0,038.2,031.1,30.8,-004.0,0006.60,0003.99,0003.64
2023-08-06 15:34:00,SystemResetWarning,0838.5,5.00,000.00,029.6,027.7,000.0,038.2,031.1,30.7,-003.9,0006.29,0003.98,0003.65
2023-08-06 15:35:00,SystemResetWarning,0838.6,5.00,000.00,029.6,027.9,000.0,038.2,031.1,30.9,-003.7,0006.32,0003.98,0003.64
2023-08-06 15:36:00,SystemResetWarning,0838.6,5.01,000.00,029.6,028.0,000.0,038.2,031.1,31.0,-003.5,0006.39,0003.98,0003.64
2023-08-06 15:37:00,SystemResetWarning,0838.6,4.99,000.00,029.6,028.1,000.0,038.2,031.2,31.1,-003.6,0006.20,0003.97,0003.64
2023-08-06 15:38:00,SystemResetWarning,0838.6,5.00,000.00,029.6,028.2,000.0,038.2,031.2,31.0,-003.8,0005.89,0003.95,0003.64
2023-08-06 15:39:00,SystemResetWarning,0838.6,4.99,000.00,029.6,028.3,000.0,038.2,031.2,30.8,-003.3,0005.83,0003.93,0003.63
2023-08-06 15:40:00,SystemResetWarning,0838.6,5.01,000.00,029.7,028.3,000.0,038.2,031.3,30.8,-003.3,0005.71,0003.90,0003.63
2023-08-06 15:41:00,SystemResetWarning,0838.6,5.01,000.00,029.7,028.4,000.0,038.3,031.3,30.7,-003.1,0006.27,0003.90,0003.64
2023-08-06 15:42:00,SystemResetWarning,0838.6,5.00,000.00,029.7,028.4,000.0,038.3,031.3,30.9,-002.6,0006.47,0003.92,0003.64
2023-08-06 15:43:00,SystemResetWarning,0838.6,5.00,000.00,029.7,028.5,000.0,038.3,031.3,30.6,-002.4,0006.42,0003.91,0003.64
2023-08-06 15:44:00,SystemResetWarning,0838.6,5.00,000.00,029.7,028.5,000.0,038.3,031.3,30.7,-002.8,0006.32,0003.89,0003.64
2023-08-06 15:45:00,SystemResetWarning,0838.6,5.00,000.00,029.7,028.5,000.0,038.3,031.4,30.6,-002.9,0006.25,0003.86,0003.62
2023-08-06 15:46:00,SystemResetWarning,0838.6,5.00,000.00,029.8,028.6,000.0,038.3,031.4,30.4,-002.9,0006.22,0003.86,0003.62
2023-08-06 15:47:00,SystemResetWarning,0838.6,5.00,000.00,029.8,028.6,000.0,038.3,031.4,30.4,-003.1,0006.15,0003.86,0003.62
2023-08-06 15:48:00,SystemResetWarning,0838.6,5.00,000.00,029.8,028.6,000.0,038.4,031.4,30.4,-002.6,0006.47,0003.87,0003.64
2023-08-06 15:49:00,SystemResetWarning,0838.6,5.00,000.00,029.8,028.6,000.0,038.4,031.4,30.4,-002.6,0007.52,0003.87,0003.64
2023-08-06 15:50:00,SystemResetWarning,0838.6,5.00,000.00,029.8,028.7,000.0,038.4,031.4,30.4,-002.5,0007.50,0003.87,0003.64
2023-08-06 15:51:00,SystemResetWarning,0838.6,5.00,000.00,029.9,028.7,000.0,038.4,031.5,30.4,-002.6,0007.91,0003.89,0003.65
2023-08-06 15:52:00,SystemResetWarning,0838.6,5.00,000.00,029.9,028.7,000.0,038.4,031.5,30.2,-002.8,0007.70,0003.87,0003.64
2023-08-06 15:53:00,SystemResetWarning,0838.6,5.00,000.00,029.9,028.7,000.0,038.4,031.5,30.5,-002.8,0007.68,0003.88,0003.65
2023-08-06 15:54:00,SystemResetWarning,0838.6,5.00,000.00,029.9,028.7,000.0,038.5,031.5,30.5,-002.7,0007.69,0003.90,0003.68
2023-08-06 15:55:00,SystemResetWarning,0838.6,4.99,000.00,029.9,028.8,000.0,038.5,031.5,30.8,-002.2,0007.72,0003.92,0003.69
2023-08-06 15:56:00,SystemResetWarning,0838.6,5.00,000.00,029.9,028.8,000.0,038.5,031.5,30.5,-002.3,0007.81,0003.94,0003.71
2023-08-06 15:57:00,SystemResetWarning,0838.6,5.00,000.00,030.0,028.8,000.0,038.5,031.6,30.1,-002.0,0007.81,0003.95,0003.72
2023-08-06 15:58:00,SystemResetWarning,0838.6,5.00,000.00,030.0,028.8,000.0,038.5,031.6,30.1,-001.6,0007.77,0003.94,0003.72
2023-08-06 15:59:00,SystemResetWarning,0838.6,5.01,000.00,030.0,028.8,000.0,038.5,031.6,30.4,-001.8,0007.70,0003.92,0003.71
